FW8813 Weather Reports


time (UTC)temp
F
wind
direction
speed
knots
gust
knots
rain 1hr
in
rain 24hr
in
rain mn
in
humidity
%
barometer
mb
20210927074612 50 282 1.7 2.6 0.00 0.00 0.00 90 1020.7
20210927074033 50 278 1.7 2.6 0.00 0.00 0.00 90 1020.7
20210927073540 50 285 1.7 2.6 0.00 0.00 0.00 91 1020.6
20210927073110 49 280 1.7 3.5 0.00 0.00 0.00 91 1020.7
20210927072533 49 274 1.7 3.5 0.00 0.00 0.00 92 1020.8
20210927072034 48 288 0.0 1.7 0.00 0.00 0.00 92 1020.8
20210927071612 49 0 0.0 0.9 0.00 0.00 0.00 91 1020.8
20210927071048 50 281 0.9 1.7 0.00 0.00 0.00 90 1020.7
20210927070532 50 281 0.9 2.6 0.00 0.00 0.00 91 1020.7
20210927070136 50 283 2.6 2.6 0.00 0.00 0.00 92 1020.9
20210927065557 49 279 1.7 2.6 0.00 0.00 0.00 93 1020.8
20210927065032 48 286 0.9 1.7 0.00 0.00 0.00 94 1020.8
20210927064546 49 285 0.0 0.9 0.00 0.00 0.00 92 1020.8
20210927064037 49 283 0.9 0.9 0.00 0.00 0.00 92 1020.8
20210927063618 49 0 0.0 1.7 0.00 0.00 0.00 92 1020.8
20210927063125 49 281 0.0 2.6 0.00 0.00 0.00 93 1020.9
20210927062547 49 278 1.7 2.6 0.00 0.00 0.00 94 1021.0
20210927062033 48 276 0.9 0.9 0.00 0.00 0.00 95 1021.1
20210927061633 48 288 0.0 0.9 0.00 0.00 0.00 95 1021.0
20210927061033 48 295 0.0 0.9 0.00 0.00 0.00 95 1021.1
20210927060602 48 321 0.0 0.9 0.00 0.00 0.00 94 1021.1
20210927060103 48 321 0.0 0.0 0.00 0.00 0.00 95 1021.1
20210927055534 48 316 0.0 0.0 0.00 0.00 0.00 95 1021.0
20210927055035 48 316 0.0 0.0 0.00 0.00 0.00 95 1021.1
20210927054551 49 0 0.0 0.0 0.00 0.00 0.00 95 1021.2
20210927054032 48 316 0.0 0.0 0.00 0.00 0.00 95 1021.1
20210927053535 48 316 0.0 0.0 0.00 0.00 0.00 95 1021.2
20210927053047 49 316 0.0 0.9 0.00 0.00 0.00 94 1021.1
20210927052535 49 0 0.0 0.9 0.00 0.00 0.00 94 1021.1
20210927052033 49 333 0.0 0.9 0.00 0.00 0.00 94 1021.1
20210927051558 49 334 0.0 0.9 0.00 0.00 0.00 94 1021.1
20210927051045 49 300 0.0 0.9 0.00 0.00 0.00 94 1021.1
20210927050552 49 300 0.0 0.9 0.00 0.00 0.00 95 1021.0
20210927050156 49 300 0.0 0.9 0.00 0.00 0.00 95 1021.0
20210927045533 49 0 0.0 0.9 0.00 0.00 0.00 94 1021.1
20210927045035 49 300 0.0 0.9 0.00 0.00 0.00 93 1021.1
20210927044636 49 290 0.0 0.0 0.00 0.00 0.00 94 1021.1
20210927044035 49 0 0.0 0.9 0.00 0.00 0.00 94 1021.1
20210927043544 49 0 0.0 0.9 0.00 0.00 0.00 95 1021.1
20210927043125 49 0 0.0 0.9 0.00 0.00 0.00 95 1021.1
20210927042531 49 0 0.0 0.9 0.00 0.00 0.00 94 1021.1
20210927042110 49 0 0.0 0.9 0.00 0.00 0.00 94 1021.1
20210927041604 49 0 0.0 0.9 0.00 0.00 0.00 94 1021.3
20210927041034 49 0 0.0 0.9 0.00 0.00 0.00 94 1021.1
20210927040531 49 331 0.0 0.9 0.00 0.00 0.00 93 1021.1
20210927040052 50 0 0.0 0.9 0.00 0.00 0.00 93 1021.1
20210927035534 50 0 0.0 1.7 0.00 0.00 0.00 93 1021.1
20210927035043 50 328 0.0 1.7 0.00 0.00 0.00 93 1020.9
20210927034544 50 287 0.9 1.7 0.00 0.00 0.00 94 1021.0
20210927034033 50 285 0.9 0.9 0.00 0.00 0.00 95 1021.0
20210927033540 50 282 0.0 0.9 0.00 0.00 0.00 94 1021.1
20210927033207 50 282 0.0 0.9 0.00 0.00 0.00 93 1021.0
20210927032533 50 0 0.0 0.0 0.00 0.00 0.00 92 1020.9
20210927032031 50 0 0.0 0.9 0.00 0.00 0.00 92 1020.8
20210927031613 51 0 0.0 0.9 0.00 0.00 0.00 92 1020.9
20210927031031 51 0 0.0 0.9 0.00 0.00 0.00 92 1020.8
20210927030532 51 0 0.0 0.0 0.00 0.00 0.00 90 1020.7
20210927030110 52 0 0.0 0.9 0.00 0.00 0.00 89 1020.7
20210927025531 52 0 0.0 0.9 0.00 0.00 0.00 90 1020.7
20210927025034 53 282 0.0 1.7 0.00 0.00 0.00 90 1020.7
20210927024542 54 281 0.9 1.7 0.00 0.00 0.00 89 1020.6
20210927024031 54 276 0.9 1.7 0.00 0.00 0.00 87 1020.8
20210927023534 53 272 0.9 1.7 0.00 0.00 0.00 87 1020.8
20210927023139 52 282 0.9 1.7 0.00 0.00 0.00 91 1020.9
20210927022541 52 184 0.0 0.9 0.00 0.00 0.00 91 1020.9
20210927022046 52 184 0.0 0.9 0.00 0.00 0.00 91 1021.0
20210927021623 53 184 0.0 0.0 0.00 0.00 0.00 91 1021.0
20210927021034 53 181 0.0 0.0 0.00 0.00 0.00 90 1021.1
20210927020538 53 0 0.0 0.9 0.00 0.00 0.00 89 1020.9
20210927020143 54 0 0.0 2.6 0.00 0.00 0.00 88 1020.9
20210927015536 55 276 0.9 2.6 0.00 0.00 0.00 87 1020.8
20210927015033 54 288 1.7 2.6 0.00 0.00 0.00 89 1020.8
20210927014713 54 288 0.0 0.9 0.00 0.00 0.00 90 1020.7
20210927014034 54 326 0.0 0.9 0.00 0.00 0.00 89 1020.8
20210927013538 55 0 0.0 0.9 0.00 0.00 0.00 88 1020.7
20210927013106 54 264 0.0 0.9 0.00 0.00 0.00 89 1020.7
20210927012536 55 331 0.9 1.7 0.00 0.00 0.00 88 1020.7
20210927012044 56 355 0.0 3.5 0.00 0.00 0.00 86 1020.6
20210927011620 56 283 1.7 3.5 0.00 0.00 0.00 85 1020.7
20210927011035 56 281 2.6 3.5 0.00 0.00 0.00 86 1020.6
20210927010537 56 290 1.7 2.6 0.00 0.00 0.00 87 1020.5
20210927010107 56 277 0.9 0.9 0.00 0.00 0.00 87 1020.4
20210927005548 56 289 0.0 0.9 0.00 0.00 0.00 88 1020.4
20210927005035 56 330 0.0 0.9 0.00 0.00 0.00 87 1020.4
20210927004652 56 0 0.0 0.9 0.00 0.00 0.00 87 1020.3
20210927004048 56 271 0.0 0.9 0.00 0.00 0.00 89 1020.2
20210927003540 56 0 0.0 0.9 0.00 0.00 0.00 90 1020.2
20210927003119 56 278 0.0 0.9 0.00 0.00 0.00 90 1020.2
20210927002537 57 278 0.0 0.9 0.00 0.00 0.00 88 1020.2
20210927002037 57 278 0.0 1.7 0.00 0.00 0.00 86 1019.9
20210927001642 58 276 0.9 1.7 0.00 0.00 0.00 84 1019.9
20210927001041 58 277 0.9 0.9 0.00 0.00 0.00 87 1019.8
20210927000539 58 286 0.0 0.9 0.00 0.00 0.00 88 1019.7
20210927000052 58 0 0.0 0.9 0.00 0.00 0.00 88 1019.8
20210926235534 58 286 0.0 0.9 0.00 0.00 0.00 88 1019.7
20210926235109 59 282 0.0 0.9 0.00 0.00 0.00 88 1019.6
20210926234545 59 283 0.0 0.9 0.00 0.00 0.00 86 1019.6
20210926234033 60 281 0.0 0.9 0.00 0.00 0.00 86 1019.6
20210926233533 60 0 0.0 0.9 0.00 0.00 0.00 85 1019.6
20210926233100 61 0 0.0 0.9 0.00 0.00 0.00 85 1019.5
20210926232533 61 0 0.0 0.9 0.00 0.00 0.00 84 1019.5
20210926232035 62 0 0.0 0.9 0.00 0.00 0.00 83 1019.5
20210926231550 63 0 0.0 0.9 0.00 0.00 0.00 82 1019.3
20210926231032 63 281 0.0 0.9 0.00 0.00 0.00 78 1019.3
20210926230535 64 0 0.0 0.9 0.00 0.00 0.00 76 1019.4
20210926230049 65 281 0.0 0.9 0.00 0.00 0.00 71 1019.3
20210926225533 66 0 0.0 0.9 0.00 0.00 0.00 68 1019.3
20210926225047 67 0 0.0 0.9 0.00 0.00 0.00 67 1019.3
20210926224554 68 280 0.0 0.9 0.00 0.00 0.00 64 1019.3
20210926224033 69 0 0.0 0.9 0.00 0.00 0.00 59 1019.2
20210926223536 70 280 0.0 0.9 0.00 0.00 0.00 56 1019.3
20210926223137 72 289 0.0 0.9 0.00 0.00 0.00 52 1019.3
20210926222533 73 324 0.0 0.9 0.00 0.00 0.00 54 1019.3
20210926222034 73 276 0.0 0.9 0.00 0.00 0.00 48 1019.2
20210926221635 72 278 0.0 0.9 0.00 0.00 0.00 49 1019.2
20210926221035 72 279 0.9 1.7 0.00 0.00 0.00 48 1019.3
20210926220554 72 278 0.9 1.7 0.00 0.00 0.00 48 1019.0
20210926220116 72 281 0.9 2.6 0.00 0.00 0.00 48 1019.0
20210926215538 72 283 1.7 2.6 0.00 0.00 0.00 46 1019.0
20210926215058 72 275 0.9 4.3 0.00 0.00 0.00 47 1019.0
20210926214613 72 283 1.7 5.2 0.00 0.00 0.00 45 1019.1
20210926214032 72 282 2.6 5.2 0.00 0.00 0.00 44 1019.0
20210926213534 72 274 0.9 2.6 0.00 0.00 0.00 47 1018.9
20210926213133 73 289 0.9 2.6 0.00 0.00 0.00 46 1018.9
20210926212603 73 284 0.9 2.6 0.00 0.00 0.00 42 1018.9
20210926212046 73 344 1.7 5.2 0.00 0.00 0.00 43 1018.9
20210926211553 73 314 1.7 5.2 0.00 0.00 0.00 43 1018.9
20210926211031 73 281 2.6 4.3 0.00 0.00 0.00 43 1018.8
20210926210533 73 238 0.9 5.2 0.00 0.00 0.00 46 1018.8
20210926210049 73 297 1.7 5.2 0.00 0.00 0.00 46 1018.8
20210926205601 73 290 1.7 3.5 0.00 0.00 0.00 45 1018.8
20210926205046 73 283 0.9 4.3 0.00 0.00 0.00 44 1018.8
20210926204628 73 252 0.9 4.3 0.00 0.00 0.00 46 1018.8
20210926204033 73 257 1.7 3.5 0.00 0.00 0.00 45 1018.7
20210926203535 73 285 0.9 4.3 0.00 0.00 0.00 42 1018.8
20210926203111 73 311 1.7 4.3 0.00 0.00 0.00 47 1018.8
20210926202535 73 254 1.7 3.5 0.00 0.00 0.00 45 1018.8
20210926202036 73 288 1.7 3.5 0.00 0.00 0.00 45 1018.8
20210926201539 73 261 0.9 2.6 0.00 0.00 0.00 47 1018.8
20210926201035 72 326 0.0 3.5 0.00 0.00 0.00 45 1018.8
20210926200531 72 10 1.7 3.5 0.00 0.00 0.00 43 1018.9
20210926200052 72 0 1.7 4.3 0.00 0.00 0.00 47 1018.9
20210926195548 72 243 1.7 4.3 0.00 0.00 0.00 45 1018.8
20210926195044 72 245 1.7 4.3 0.00 0.00 0.00 45 1018.9
20210926194626 72 283 0.9 2.6 0.00 0.00 0.00 45 1019.0
20210926194033 72 28 0.0 5.2 0.00 0.00 0.00 50 1019.0
20210926193532 72 325 2.6 5.2 0.00 0.00 0.00 48 1019.1
20210926193042 72 335 1.7 2.6 0.00 0.00 0.00 47 1019.1
20210926192543 72 155 0.9 4.3 0.00 0.00 0.00 50 1019.2
20210926192054 71 0 1.7 5.2 0.00 0.00 0.00 48 1019.2
20210926191555 71 309 2.6 5.2 0.00 0.00 0.00 48 1019.3
20210926191034 71 104 0.9 3.5 0.00 0.00 0.00 48 1019.4
20210926190534 71 90 0.9 5.2 0.00 0.00 0.00 49 1019.4
20210926190127 71 105 3.5 5.2 0.00 0.00 0.00 49 1019.4
20210926185535 71 101 0.9 7.0 0.00 0.00 0.00 49 1019.5
20210926185112 71 137 3.5 7.0 0.00 0.00 0.00 47 1019.5
20210926184546 70 133 1.7 4.3 0.00 0.00 0.00 49 1019.5
20210926184032 70 155 0.9 3.5 0.00 0.00 0.00 47 1019.6
20210926183533 70 0 0.0 3.5 0.00 0.00 0.00 47 1019.6
20210926183113 70 179 0.9 3.5 0.00 0.00 0.00 48 1019.6
20210926182554 70 285 0.0 3.5 0.00 0.00 0.00 46 1019.8
20210926182039 70 260 0.9 2.6 0.00 0.00 0.00 48 1019.9
20210926181605 70 261 0.9 2.6 0.00 0.00 0.00 48 1020.0
20210926181052 70 236 0.0 5.2 0.00 0.00 0.00 49 1020.1
20210926180531 70 49 0.9 6.1 0.00 0.00 0.00 47 1020.3
20210926180052 70 292 2.6 6.1 0.00 0.00 0.00 46 1020.2
20210926175534 70 252 2.6 5.2 0.00 0.00 0.00 47 1020.2
20210926175101 71 266 0.9 3.5 0.00 0.00 0.00 48 1020.4
20210926174640 71 0 0.0 3.5 0.00 0.00 0.00 48 1020.5
20210926174033 71 176 0.9 5.2 0.00 0.00 0.00 47 1020.5
20210926173536 71 154 2.6 5.2 0.00 0.00 0.00 49 1020.6
20210926173056 71 96 1.7 5.2 0.00 0.00 0.00 51 1020.7
20210926172533 71 113 1.7 5.2 0.00 0.00 0.00 49 1020.8
20210926172036 71 91 3.5 5.2 0.00 0.00 0.00 51 1020.9
20210926171554 70 122 2.6 7.0 0.00 0.00 0.00 50 1020.9
20210926171034 70 111 3.5 7.0 0.00 0.00 0.00 50 1021.1
20210926170535 70 264 0.9 2.6 0.00 0.00 0.00 47 1021.1
20210926170051 71 296 1.7 2.6 0.00 0.00 0.00 46 1021.2
20210926165531 70 211 0.9 3.5 0.00 0.00 0.00 51 1021.3
20210926165034 70 127 1.7 3.5 0.00 0.00 0.00 48 1021.2
20210926164619 70 271 0.9 5.2 0.00 0.00 0.00 51 1021.4
20210926164041 70 262 2.6 5.2 0.00 0.00 0.00 50 1021.6
20210926163537 70 295 0.9 5.2 0.00 0.00 0.00 51 1021.6
20210926163144 70 95 2.6 5.2 0.00 0.00 0.00 49 1021.5
20210926162534 69 142 0.9 2.6 0.00 0.00 0.00 49 1021.5
20210926162037 69 268 0.9 5.2 0.00 0.00 0.00 49 1021.4
20210926161638 69 277 1.7 5.2 0.00 0.00 0.00 49 1021.6
20210926161031 69 0 0.9 5.2 0.00 0.00 0.00 49 1021.6
20210926160540 69 115 1.7 5.2 0.00 0.00 0.00 55 1021.7
20210926160207 69 101 0.9 4.3 0.00 0.00 0.00 51 1021.6
20210926155536 69 23 0.9 2.6 0.00 0.00 0.00 53 1021.7
20210926155032 68 0 0.0 2.6 0.00 0.00 0.00 51 1021.8
20210926154610 68 0 1.7 6.1 0.00 0.00 0.00 50 1021.7
20210926154032 68 250 2.6 6.1 0.00 0.00 0.00 53 1021.7
20210926153537 68 29 1.7 4.3 0.00 0.00 0.00 57 1021.7
20210926153055 68 349 0.9 3.5 0.00 0.00 0.00 54 1021.7
20210926152531 68 20 0.9 3.5 0.00 0.00 0.00 53 1021.8
20210926152033 68 12 0.9 1.7 0.00 0.00 0.00 53 1021.8
20210926151549 67 0 0.0 1.7 0.00 0.00 0.00 55 1021.7
20210926151032 68 217 0.9 1.7 0.00 0.00 0.00 55 1021.7
20210926150535 67 247 0.0 2.6 0.00 0.00 0.00 54 1021.7
20210926150220 68 240 0.9 3.5 0.00 0.00 0.00 57 1021.7
20210926145606 67 147 0.0 3.5 0.00 0.00 0.00 56 1021.6
20210926145035 67 110 0.9 1.7 0.00 0.00 0.00 64 1021.6
20210926144634 66 79 0.9 1.7 0.00 0.00 0.00 61 1021.6
20210926144035 66 221 0.9 1.7 0.00 0.00 0.00 63 1021.7
20210926143535 65 266 0.0 1.7 0.00 0.00 0.00 65 1021.6
20210926143118 65 233 0.0 1.7 0.00 0.00 0.00 69 1021.6
20210926142538 65 279 0.0 2.6 0.00 0.00 0.00 68 1021.7
20210926142036 66 269 0.9 2.6 0.00 0.00 0.00 73 1021.7
20210926141630 65 207 0.0 2.6 0.00 0.00 0.00 75 1021.6
20210926141044 63 256 0.0 2.6 0.00 0.00 0.00 75 1021.6
20210926140536 63 285 0.9 2.6 0.00 0.00 0.00 74 1021.6
20210926140113 64 282 0.9 2.6 0.00 0.00 0.00 71 1021.6
20210926135536 64 271 0.0 0.9 0.00 0.00 0.00 74 1021.6
20210926135033 64 241 0.0 2.6 0.00 0.00 0.00 78 1021.5
20210926134602 62 0 0.9 2.6 0.00 0.00 0.00 79 1021.5
20210926134036 62 211 0.9 2.6 0.00 0.00 0.00 79 1021.4
20210926133536 61 137 0.0 2.6 0.00 0.00 0.00 78 1021.3
20210926133110 61 127 1.7 2.6 0.00 0.00 0.00 76 1021.3
20210926132534 61 0 0.9 2.6 0.00 0.00 0.00 77 1021.1
20210926132033 62 148 0.9 1.7 0.00 0.00 0.00 78 1021.1
20210926131554 61 0 0.0 1.7 0.00 0.00 0.00 79 1021.1
20210926131041 60 207 0.9 2.6 0.00 0.00 0.00 83 1021.2
20210926130533 60 124 0.9 2.6 0.00 0.00 0.00 81 1021.1
20210926130104 60 149 0.0 0.9 0.00 0.00 0.00 80 1021.0
20210926125544 59 0 0.0 1.7 0.00 0.00 0.00 84 1021.0
20210926125034 57 0 0.0 2.6 0.00 0.00 0.00 87 1021.0
20210926124558 57 99 1.7 2.6 0.00 0.00 0.00 86 1020.8
20210926124035 56 94 0.0 0.9 0.00 0.00 0.00 86 1020.8
20210926123534 55 0 0.0 2.6 0.00 0.00 0.00 88 1020.8
20210926123041 54 0 0.0 2.6 0.00 0.00 0.00 92 1020.8
20210926122535 53 139 0.9 2.6 0.00 0.00 0.00 91 1020.7
20210926122034 52 295 0.0 0.9 0.00 0.00 0.00 91 1020.6
20210926121602 52 276 0.0 0.9 0.00 0.00 0.00 90 1020.6
20210926121041 52 274 0.0 0.9 0.00 0.00 0.00 89 1020.5
20210926120532 52 0 0.0 0.9 0.00 0.00 0.00 91 1020.5
20210926120154 51 102 0.0 0.9 0.00 0.00 0.00 89 1020.5
20210926115533 51 0 0.0 0.9 0.00 0.00 0.00 91 1020.4
20210926115035 49 103 0.0 0.9 0.00 0.00 0.00 93 1020.2
20210926114558 49 0 0.0 0.9 0.00 0.00 0.00 91 1020.2
20210926114033 49 216 0.0 0.9 0.00 0.00 0.00 96 1020.0
20210926113533 48 267 0.0 0.9 0.00 0.00 0.00 95 1019.9
20210926113111 47 0 0.0 0.9 0.00 0.00 0.00 96 1019.8
20210926112535 47 0 0.9 0.9 0.00 0.00 0.00 96 1019.8
20210926112033 46 0 0.0 0.9 0.00 0.00 0.00 95 1019.7
20210926111536 47 68 0.0 1.7 0.00 0.00 0.00 96 1019.6
20210926111038 47 68 0.9 1.7 0.00 0.00 0.00 97 1019.5
20210926110536 47 1 0.0 2.6 0.00 0.00 0.00 97 1019.4
20210926110134 47 256 0.0 2.6 0.00 0.00 0.00 97 1019.3
20210926105531 46 19 0.0 2.6 0.00 0.00 0.00 97 1019.2
20210926105039 46 4 0.0 0.9 0.00 0.00 0.00 97 1019.3
20210926104540 46 0 0.0 2.6 0.00 0.00 0.00 96 1019.4
20210926104041 45 0 0.0 3.5 0.00 0.00 0.00 96 1019.5
20210926103541 45 75 2.6 3.5 0.00 0.00 0.00 96 1019.3
20210926103209 45 90 0.9 2.6 0.00 0.00 0.00 95 1019.3
20210926102533 46 327 0.0 0.9 0.00 0.00 0.00 96 1019.2
20210926102044 47 0 0.0 0.9 0.00 0.00 0.00 97 1019.3
20210926101553 46 0 0.0 0.0 0.00 0.00 0.00 97 1019.2
20210926101033 46 0 0.0 0.0 0.00 0.00 0.00 96 1019.3
20210926100530 46 0 0.0 0.0 0.00 0.00 0.00 96 1019.2
20210926100046 46 0 0.0 0.9 0.00 0.00 0.00 96 1019.3
20210926095551 46 0 0.0 0.9 0.00 0.01 0.00 96 1019.1
20210926095033 46 0 0.0 0.9 0.00 0.01 0.00 96 1019.2
20210926094723 46 248 0.0 0.9 0.00 0.01 0.00 96 1019.2
20210926094108 46 247 0.0 0.9 0.00 0.01 0.00 96 1019.2
20210926093539 46 0 0.0 0.0 0.00 0.01 0.00 95 1019.3
20210926093117 46 0 0.0 0.0 0.00 0.01 0.00 95 1019.4
20210926092537 47 0 0.0 0.9 0.00 0.01 0.00 95 1019.3
20210926092034 48 0 0.0 0.9 0.00 0.01 0.00 96 1019.3
20210926091550 48 247 0.0 0.9 0.00 0.01 0.00 96 1019.2
20210926091034 47 247 0.0 0.9 0.00 0.01 0.00 96 1019.2
20210926090534 47 247 0.0 0.9 0.00 0.01 0.00 96 1019.3
20210926090135 47 0 0.0 0.9 0.00 0.01 0.00 96 1019.2
20210926085536 47 0 0.0 0.9 0.00 0.01 0.00 96 1019.1
20210926085035 47 0 0.0 0.9 0.00 0.01 0.00 96 1019.1
20210926084553 47 0 0.0 0.9 0.00 0.01 0.00 95 1018.9
20210926084039 47 360 0.0 0.9 0.00 0.01 0.00 95 1019.0
20210926083533 48 0 0.0 0.9 0.00 0.01 0.00 95 1018.9
20210926083104 48 0 0.0 2.6 0.00 0.01 0.00 96 1018.9
20210926082537 48 0 0.0 2.6 0.00 0.01 0.00 95 1018.9
20210926082033 49 0 0.0 1.7 0.00 0.01 0.00 96 1018.9
20210926081547 48 255 0.0 0.9 0.00 0.01 0.00 96 1019.1
20210926081037 48 0 0.0 0.9 0.00 0.01 0.00 95 1019.0
20210926080538 48 0 0.0 1.7 0.00 0.01 0.00 96 1018.9
20210926080059 48 274 0.9 1.7 0.00 0.01 0.00 95 1018.8
20210926075532 48 130 0.0 0.9 0.00 0.01 0.00 95 1018.7
20210926075035 48 0 0.0 0.0 0.00 0.01 0.00 94 1018.7